Date String (YYYY-MM-DD hh:mm:ss) UTC,Instrument flags,Ambient pressure (hPa),Sample flow (lpm),Bypass flow (lpm),Sample temperature (°C),Ambient temperature (°C),ASC tube jacket temperature (°C),LED temperature (°C),Box temperature (°C),Sample RH (%),Span deviation,Mass concentration (μg/m³),Mass concentration (μg/m³),Mass concentration (μg/m³)
DateTimeUTC,F1_M11,P_M11,Q1_M11,Q2_M11,T1_M11,T2_M11,T3_M11,T4_M11,T5_M11,U1_M11,ZSPAN_M11,X0_M11,X2_M11,X1_M11
2022-01-21 04:00:00,,0825.3,5.00,0.00,22.1,22.4,00.0,30.9,24.0,13.3,-001.2,0021.88,0015.90,0015.43
2022-01-21 04:01:00,,0825.2,5.00,0.00,22.1,22.1,00.0,31.0,23.9,13.3,-001.1,0021.86,0015.90,0015.44
2022-01-21 04:02:00,,0825.2,5.01,0.00,22.0,21.9,00.0,31.0,23.8,13.3,-001.1,0021.37,0015.88,0015.43
2022-01-21 04:03:00,,0825.2,5.00,0.00,22.0,21.8,00.0,31.0,23.7,13.3,-001.2,0020.84,0015.82,0015.35
2022-01-21 04:04:00,,0825.2,5.01,0.00,22.0,21.6,00.0,31.0,23.7,13.3,-001.2,0020.84,0015.83,0015.33
2022-01-21 04:05:00,,0825.1,4.99,0.00,22.0,21.6,00.0,31.0,23.6,13.3,-001.1,0020.89,0015.85,0015.35
2022-01-21 04:06:00,,0825.1,5.01,0.00,22.0,21.5,00.0,31.0,23.7,13.4,-001.1,0020.86,0015.84,0015.36
2022-01-21 04:07:00,,0825.1,4.99,0.00,22.0,21.5,00.0,31.0,23.7,13.4,-001.1,0021.01,0015.95,0015.46
2022-01-21 04:08:00,,0825.1,5.01,0.00,21.9,21.4,00.0,30.9,23.7,13.4,-001.1,0020.93,0015.95,0015.50
2022-01-21 04:09:00,,0825.0,5.00,0.00,22.0,21.4,00.0,30.9,23.7,13.4,-001.2,0021.02,0015.98,0015.55
2022-01-21 04:10:00,,0825.0,5.00,0.00,21.9,21.4,00.0,30.9,23.7,13.4,-001.4,0021.07,0016.01,0015.58
2022-01-21 04:11:00,,0825.0,5.01,0.00,21.9,21.4,00.0,30.9,23.7,13.4,-001.3,0021.14,0016.07,0015.64
2022-01-21 04:12:00,,0824.9,4.99,0.00,21.9,21.4,00.0,30.9,23.7,13.4,-001.4,0021.28,0016.17,0015.74
2022-01-21 04:13:00,,0824.9,4.99,0.00,21.9,21.4,00.0,30.9,23.7,13.4,-001.4,0021.50,0016.31,0015.86
2022-01-21 04:14:00,,0825.0,5.01,0.00,21.9,21.3,00.0,30.9,23.7,13.4,-001.2,0021.75,0016.48,0016.01
2022-01-21 04:15:00,,0825.0,4.98,0.00,21.9,21.3,00.0,30.9,23.6,13.4,-001.2,0021.90,0016.60,0016.13
2022-01-21 04:16:00,,0824.9,5.00,0.00,21.9,21.3,00.0,30.9,23.6,13.4,-001.3,0021.91,0016.64,0016.19
2022-01-21 04:17:00,,0824.9,4.99,0.00,21.9,21.3,00.0,30.9,23.6,13.4,-001.2,0022.00,0016.71,0016.25
2022-01-21 04:18:00,,0824.9,5.00,0.00,21.9,21.2,00.0,30.9,23.6,13.5,-001.3,0022.09,0016.77,0016.30
2022-01-21 04:19:00,,0824.8,4.99,0.00,21.9,21.4,00.0,30.9,23.6,13.5,-001.3,0022.31,0016.87,0016.37
2022-01-21 04:20:00,,0824.8,5.01,0.00,22.0,22.2,00.0,30.9,23.9,13.4,-001.3,0022.32,0016.89,0016.40
2022-01-21 04:21:00,,0824.7,5.00,0.00,22.1,23.0,00.0,31.0,24.2,13.3,-001.3,0022.19,0016.84,0016.37
2022-01-21 04:22:00,,0824.7,5.00,0.00,22.3,23.1,00.0,31.0,24.3,13.2,-001.1,0022.25,0016.82,0016.36
2022-01-21 04:23:00,,0824.8,4.99,0.00,22.3,22.8,00.0,31.0,24.3,13.2,-001.1,0023.14,0016.85,0016.37
2022-01-21 04:24:00,,0824.8,5.00,0.00,22.3,22.6,00.0,31.1,24.2,13.2,-001.0,0023.52,0016.90,0016.40
2022-01-21 04:25:00,,0824.9,5.01,0.00,22.3,22.3,00.0,31.1,24.1,13.2,-001.2,0023.54,0016.89,0016.39
2022-01-21 04:26:00,,0824.9,4.99,0.00,22.3,22.1,00.0,31.1,24.0,13.2,-001.0,0023.60,0016.92,0016.40
2022-01-21 04:27:00,,0824.7,5.02,0.00,22.2,22.0,00.0,31.1,24.0,13.2,-001.0,0023.59,0016.90,0016.38
2022-01-21 04:28:00,,0824.6,4.98,0.00,22.2,21.8,00.0,31.1,23.9,13.2,-001.1,0023.57,0016.86,0016.32
2022-01-21 04:29:00,,0824.6,4.99,0.00,22.1,21.6,00.0,31.1,23.8,13.3,-001.0,0023.39,0016.76,0016.22
2022-01-21 04:30:00,,0824.6,5.01,0.00,22.1,21.5,00.0,31.1,23.7,13.3,-001.0,0022.99,0016.54,0016.06
2022-01-21 04:31:00,,0824.6,4.99,0.00,22.0,21.4,00.0,31.1,23.6,13.3,-001.0,0022.82,0016.48,0015.99
2022-01-21 04:32:00,,0824.6,5.02,0.00,22.0,21.3,00.0,31.0,23.6,13.4,-001.1,0022.88,0016.50,0016.01
2022-01-21 04:33:00,,0824.6,4.99,0.00,21.9,21.3,00.0,31.0,23.5,13.4,-001.1,0022.77,0016.53,0016.02
2022-01-21 04:34:00,,0824.6,5.02,0.00,21.9,21.2,00.0,31.0,23.5,13.4,-001.2,0021.84,0016.47,0015.95
2022-01-21 04:35:00,,0824.5,4.99,0.00,21.9,21.2,00.0,31.0,23.5,13.5,-001.2,0021.42,0016.41,0015.92
2022-01-21 04:36:00,,0824.6,5.01,0.00,21.9,21.2,00.0,31.0,23.5,13.5,-001.0,0021.49,0016.44,0015.98
2022-01-21 04:37:00,,0824.4,4.99,0.00,21.8,21.2,00.0,31.0,23.5,13.5,-001.1,0021.55,0016.48,0016.00
2022-01-21 04:38:00,,0824.4,5.01,0.00,21.8,21.1,00.0,30.9,23.5,13.5,-001.1,0021.58,0016.52,0016.02
2022-01-21 04:39:00,,0824.4,4.99,0.00,21.8,21.1,00.0,30.9,23.4,13.5,-001.2,0021.32,0016.35,0015.88
2022-01-21 04:40:00,,0824.4,5.01,0.00,21.8,21.4,00.0,30.9,23.4,13.5,-001.3,0021.09,0016.17,0015.73
2022-01-21 04:41:00,,0824.4,5.00,0.00,21.9,22.2,00.0,30.9,23.7,13.4,-001.2,0021.08,0016.15,0015.70
2022-01-21 04:42:00,,0824.4,5.01,0.00,22.1,23.0,00.0,31.0,24.0,13.3,-001.1,0020.91,0016.02,0015.57
2022-01-21 04:43:00,,0824.4,4.98,0.00,22.2,22.9,00.0,31.0,24.1,13.2,-001.0,0020.77,0015.92,0015.47
2022-01-21 04:44:00,,0824.4,5.00,0.00,22.2,22.7,00.0,31.0,24.1,13.2,-001.1,0020.69,0015.85,0015.40
2022-01-21 04:45:00,,0824.3,5.00,0.00,22.2,22.5,00.0,31.0,24.1,13.2,-001.1,0020.74,0015.88,0015.42
2022-01-21 04:46:00,,0824.4,5.01,0.00,22.2,22.3,00.0,31.1,24.0,13.2,-001.1,0020.68,0015.82,0015.34
2022-01-21 04:47:00,,0824.4,4.99,0.00,22.2,22.1,00.0,31.1,24.0,13.2,-001.1,0020.50,0015.74,0015.27
2022-01-21 04:48:00,,0824.4,5.02,0.00,22.2,22.0,00.0,31.1,24.0,13.2,-001.0,0020.41,0015.67,0015.20
2022-01-21 04:49:00,,0824.4,4.99,0.00,22.2,21.9,00.0,31.1,23.9,13.2,-000.9,0020.35,0015.63,0015.17
2022-01-21 04:50:00,,0824.3,5.00,0.00,22.1,21.7,00.0,31.1,23.8,13.2,-000.7,0020.40,0015.69,0015.22
2022-01-21 04:51:00,,0824.4,5.00,0.00,22.1,21.6,00.0,31.1,23.8,13.2,-000.5,0020.58,0015.83,0015.36
2022-01-21 04:52:00,,0824.3,5.00,0.00,22.0,21.5,00.0,31.1,23.7,13.3,-000.6,0020.89,0015.82,0015.34
2022-01-21 04:53:00,,0824.3,5.00,0.00,22.0,21.4,00.0,31.0,23.6,13.3,-000.8,0021.07,0015.85,0015.37
2022-01-21 04:54:00,,0824.3,5.01,0.00,22.0,21.3,00.0,31.0,23.6,13.3,-000.9,0021.18,0015.90,0015.43
2022-01-21 04:55:00,,0824.4,4.98,0.00,21.9,21.3,00.0,31.0,23.6,13.4,-001.0,0021.20,0015.89,0015.43
2022-01-21 04:56:00,,0824.4,5.01,0.00,21.9,21.2,00.0,31.0,23.5,13.4,-001.1,0022.02,0015.77,0015.34
2022-01-21 04:57:00,,0824.4,4.99,0.00,21.8,21.1,00.0,31.0,23.5,13.4,-001.1,0021.88,0015.69,0015.27
2022-01-21 04:58:00,,0824.4,5.01,0.00,21.8,21.0,00.0,30.9,23.4,13.5,-001.1,0021.76,0015.60,0015.18
2022-01-21 04:59:00,,0824.3,4.99,0.00,21.8,21.1,00.0,30.9,23.4,13.5,-001.1,0021.60,0015.51,0015.10
